Probability
0 0 0 0 0 0 0 0 0 0 0 0 0 0 0 0 0 0 0 0 0 0 0 0 0 0 0 0 0 0 0 0 0 0 0 0 0 0 0 0 0 0 0 0
0 0 0 0 0 0 0 0 0 0 0 0 0 0 0 0 0 0 0 0 0 0 0 0 0 0 0 0 0 0 0 0 0 0 0 0 0 0 0 0 0 0 0 0
0 0 0 0 0 0 0 0 0 0 0 0 0 0 0 0 0 0 0 0 0 0 0 0 0 0 0 0 0 0 0 0 0 0 0 0 0 0 0 0 0 0 0 0
0 0 0 0 0 0 0 0 0 0 0 0 0 0 0 0 0 0 0 0 0 0 0 0 0 0 0 0 0 0 0 0 0 0 0 0 0 0 0 0 0 0 0 0
0 0 0 0 0 0 0 0 0 0 0 0 0 0 0 0 0 0 0 0 0 0 0 0 0 0 0 0 0 0 0 0 0 0 0 0 0 0 0 0 0 0 0 0
0 0 0 0 0 0 0 0 0 0 0 0 0 0 0 0 0 0 0 0 0 0 0 0 0 0 0 0 0 0 0 0 0 0 0 0 0 0 0 0 0 0 0 0
0 0 0 0 0 0 0 0 0 0 0 0 0 0 0 0 0 0 0 0 0 0 0 0 0 0 0 0 0 0 0 0 0 0 0 0 0 0 0 0 0 0 0 0
0 0 0 0 0 0 0 0 0 0 0 0 0 0 0 0 0 0 0 0 0 0 0 0 0 0 0 0 0 0 0 0 0 0 0 0 0 0 0 0 0 0 0 0
0 0 0 0 0 0 0 0 0 0 0 0 0 0 0 0 0 0 0 0 0 0 0 0 0 0 0 0 0 0 0 0 0 0 0 0 0 0 0 0 0 0 0 0
0 0 0 0 0 0 0 0 0 0 0 0 0 0 0 0 0 0 0 0 0 0 0 0 0 0 0 0 0 0 0 0 0 0 0 0 0 0 0 0 0 0 0 0
0 0 0 0 0 0 0 0 0 0 0 0 0 0 0 0 0 0 0 0 0 0 0 0 0 0 0 0 0 0 0 0 0 0 0 0 0 0 0 0 0 0 0 0
0 0 0 0 0 0 0 0 0 0 0 0 0 0 0 0 0 0 0 0 0 0 0 0 0 0 0 0 0 0 0 0 0 0 0 0 0 0 0 0 0 0 0 0
0 0 0 0 0 0 0 0 0 0 0 0 0 0 0 0 0 0 0 0 0 0 0 0 0 0 0 0 0 0 0 0 0 0 0 0 0 0 0 0 0 0 0 0
0 0 0 0 0 0 0 0 0 0 0 0 0 0 0 0 0 0 0 0 0 0 0 0 0 0 0 0 0 0 0 0 0 0 0 0 0 0 0 0 0 0 0 0
0 0 0 0 0 0 0 0 0 0 0 0 0 0 0 0 0 0 0 0 0 0 0 0 0 0 0 0 0 0 0 0 0 0 0 0 0 0 0 0 0 0 0 0
0 0 0 0 0 0 0 0 0 0 0 0 0 0 0 0 0 0 0 0 0 0 0 0 0 0 0 0 0 0 0 0 0 0 0 0 0 0 0 0 0 0 0 0
0 0 0 0 0 0 0 0 0 0 0 0 0 0 0 0 0 0 0 0 0 0 0 0 0 0 0 0 0 0 0 0 0 0 0 0 0 0 0 0 0 0 0 0
0 0 0 0 0 0 0 0 0 0 0 0 0 0 0 0 0 0 0 0 0 0 0 0 0 0 0 0 0 0 0 0 0 0 0 0 0 0 0 0 0 0 0 0
0 0 0 0 0 0 0 0 0 0 0 0 0 0 0 0 0 0 0 0 0 0 0 0 0 0 0 0 0 0 0 0 0 0 0 0 0 0 0 0 0 0 0 0
0 0 0 0 0 0 0 0 0 0 0 0 0 0 0 0 0 0 0 0 0 0 0 0 0 0 0 0 0 0 0 0 0 0 0 0 0 0 0 0 0 0 0 0
0 0 0 0 0 0 0 0 0 0 0 0 0 0 0 0 0 0 0 0 0 0 0 0 0 0 0 0 0 0 0 0 0 0 0 0 0 0 0 0 0 0 0 0
0 0 0 0 0 0 0 0 0 0 0 0 0 0 0 0 0 0 0 0 0 0 0 0 0 0 0 0 0 0 0 0 0 0 0 0 0 0 0 0 0 0 0 0
0 0 0 0 0 0 0 0 0 0 0 0 0 0 0 0 0 0 0 0 0 0 0 0 0 0 0 0 0 0 0 0 0 0 0 0 0 0 0 0 0 0 0 0
0 0 0 0 0 0 0 0 0 0 0 0 0 0 0 0 0 0 0 0 0 0 0 0 0 0 0 0 0 0 0 0 0 0 0 0 0 0 0 0 0 0 0 0
0 0 0 0 0 0 0 0 0 0 0 0 0 0 0 0 0 0 0 0 0 0 0 0 0 0 0 0 0 0 0 0 0 0 0 0 0 0 0 0 0 0 0 0
0 0 0 0 0 0 0 0 0 0 0 0 0 0 0 0 0 0 0 0 0 0 0 0 0 0 0 0 0 0 0 0 0 0 0 0 0 0 0 0 0 0 0 0
0 0 0 0 0 0 0 0 0 0 0 0 0 0 0 0 0 0 0 0 0 0 0 0 0 0 0 0 0 0 0 0 0 0 0 0 0 0 0 0 0 0 0 0
Wind_Speed
4 4 3 6 7 7 9 9 9 9 9 10 6 5 4 3 3 2 3 3 3 3 3 2 2 2 2 2 2 2 1 2 3 3 3 3 2 3 2 2 3 3 3 3
3 3 3 6 8 9 10 9 10 9 11 8 5 3 3 4 3 3 4 4 4 3 3 2 2 3 2 2 2 2 2 3 3 2 2 3 3 3 2 2 3 2 2 3
4 2 2 8 9 9 7 7 8 11 11 4 3 4 5 5 4 4 4 4 4 4 3 3 2 2 3 3 2 2 3 3 2 2 2 3 3 2 3 3 3 3 3 3
1 1 7 8 1 6 7 7 7 7 6 5 6 4 4 4 4 4 4 3 4 3 3 2 2 2 2 1 2 2 2 3 2 2 3 3 2 3 3 3 3 3 4 4
2 3 9 7 3 5 6 7 7 9 7 4 2 2 4 2 2 3 3 3 3 3 2 2 2 2 1 1 2 2 2 3 3 3 3 3 3 3 3 3 3 3 3 3
3 4 8 7 2 2 4 6 5 7 7 3 2 1 5 2 2 3 3 2 2 2 2 2 2 1 1 1 2 3 3 3 3 3 3 3 3 3 2 2 3 3 3 3
5 6 10 5 2 4 4 7 2 4 4 5 6 6 3 2 2 2 2 2 2 2 2 2 2 1 1 2 3 4 3 3 3 3 3 3 2 2 2 2 2 2 2 3
5 6 11 4 6 8 7 1 2 3 3 4 4 3 2 2 2 2 2 2 2 2 2 2 1 1 2 3 4 3 2 2 3 3 2 2 1 2 2 2 2 2 2 2
10 9 3 5 6 4 2 3 3 3 3 3 3 4 3 3 3 2 2 2 2 2 3 3 2 1 2 4 3 2 2 2 2 3 2 2 2 2 2 1 1 2 2 2
5 7 4 4 4 3 3 4 3 3 3 3 4 4 4 3 3 3 3 2 2 2 2 3 2 2 3 3 2 2 2 2 2 2 2 2 2 2 2 2 2 2 2 2
6 6 4 5 6 5 4 3 2 2 3 4 4 4 4 4 4 3 3 3 2 2 3 4 3 3 3 2 1 1 2 2 2 2 2 2 2 2 2 2 3 3 3 3
7 5 5 6 3 4 4 4 4 4 3 3 4 5 4 4 4 3 3 3 3 3 4 3 3 3 3 2 1 1 2 2 2 2 2 2 2 3 4 4 5 6 5 4
5 3 3 4 2 2 3 4 4 4 4 4 3 4 3 3 3 3 3 3 4 4 4 3 3 3 3 2 1 2 2 2 2 2 2 2 2 2 3 4 5 5 5 5
3 1 3 3 4 3 2 2 2 2 3 3 3 2 2 3 3 3 4 4 4 3 3 3 3 4 3 2 2 2 2 3 2 1 1 2 2 2 2 3 3 3 4 6
4 3 4 3 2 2 1 1 1 2 2 2 2 2 2 3 4 4 3 3 2 2 3 2 3 4 3 2 2 2 2 2 2 1 1 2 2 2 2 2 3 3 3 3
2 2 1 2 2 2 2 1 2 3 3 3 3 3 3 3 3 2 2 1 1 2 3 3 3 4 3 2 2 2 2 3 3 1 1 1 2 2 2 2 2 3 3 3
1 2 2 3 4 4 4 4 4 4 3 3 3 3 2 1 1 1 2 2 2 2 3 3 3 3 2 2 2 2 2 2 4 2 2 2 2 2 2 2 2 3 3 4
4 4 4 4 4 4 4 3 2 3 3 3 2 1 1 2 2 2 2 2 1 2 2 2 2 2 2 2 2 1 1 1 1 1 2 2 2 2 2 2 3 3 3 4
1 2 2 2 2 2 3 3 2 2 2 1 1 2 2 2 1 1 1 1 1 2 3 2 4 2 2 2 2 1 1 1 1 1 1 3 2 2 2 2 3 3 3 3
1 1 1 1 1 1 1 2 1 1 1 1 1 1 0 1 1 1 1 1 2 2 3 3 2 1 2 2 2 1 1 1 1 2 1 1 2 2 2 2 3 3 3 3
1 1 1 1 2 2 1 1 0 0 0 1 2 1 1 1 1 1 1 2 2 2 2 3 2 1 1 1 1 0 1 1 1 1 1 1 2 2 2 2 3 3 3 3
1 1 1 1 1 2 2 1 1 1 1 1 1 1 1 0 1 1 1 2 2 4 2 1 1 2 2 1 0 0 1 1 1 1 1 2 2 2 2 3 3 3 3 3
0 0 0 0 0 1 2 1 1 1 1 0 1 1 1 1 1 1 2 2 1 3 2 1 3 4 3 1 1 0 1 1 1 1 2 2 2 2 3 3 3 3 3 3
0 0 0 0 1 1 1 1 1 1 0 0 0 1 1 1 1 1 1 3 4 4 1 2 5 5 4 2 1 0 1 1 2 2 2 2 2 2 3 3 3 3 3 4
1 1 0 1 0 0 0 0 1 1 1 1 1 1 1 0 1 1 1 2 3 4 2 3 6 6 3 1 1 1 1 2 2 2 2 2 2 3 3 3 3 4 4 4
1 1 1 1 1 1 0 0 0 0 0 1 1 1 1 1 1 1 1 1 2 3 3 2 3 3 2 2 1 2 2 3 3 3 2 3 3 3 3 3 4 4 4 5
0 0 0 0 0 0 1 1 0 1 1 1 1 1 1 1 1 1 1 1 2 2 2 2 2 2 2 2 2 2 2 2 2 3 3 3 3 3 4 4 4 4 5 5
Wind_Direction
252 266 228 227 230 206 208 213 218 241 242 256 258 248 255 262 265 272 286 288 283 283 273 262 269 269 263 267 273 258 236 238 250 261 258 250 251 254 245 242 245 243 246 251
275 276 264 264 251 224 228 231 237 258 265 262 277 264 270 263 253 262 276 283 288 287 283 265 264 270 272 271 275 256 233 246 261 261 254 249 249 255 252 244 246 242 241 250
253 298 344 270 234 204 209 214 201 228 246 267 278 259 250 249 245 252 266 284 292 287 277 273 271 273 265 266 276 265 252 254 256 252 253 254 257 253 252 244 235 236 246 244
212 53 237 243 196 185 202 232 216 230 250 245 248 262 264 246 234 253 273 284 291 291 291 292 291 290 293 291 272 261 264 264 257 250 255 254 248 248 253 252 238 238 247 236
162 229 272 284 227 175 190 255 223 227 249 268 309 324 287 255 236 248 264 274 278 278 282 293 292 295 319 314 295 281 274 271 267 253 252 250 248 251 249 249 255 250 244 233
167 203 243 250 207 153 119 276 237 205 228 229 117 249 266 282 309 299 298 295 296 303 316 309 303 307 303 296 301 286 285 283 279 263 248 249 250 251 251 252 255 254 265 249
199 229 258 250 172 130 176 247 226 192 203 186 201 223 247 288 304 298 302 303 304 301 294 290 298 306 284 285 277 282 295 300 295 282 267 255 254 249 241 249 253 249 258 266
178 215 251 190 148 186 216 214 184 199 202 202 223 244 258 275 280 291 309 313 310 300 294 302 298 276 285 284 289 299 302 306 306 304 297 292 264 262 245 225 241 249 251 269
196 216 242 174 194 216 187 203 218 215 228 201 221 241 254 265 266 274 282 292 302 295 299 310 308 267 268 288 299 302 306 305 306 309 307 305 284 275 266 238 234 252 244 260
249 259 250 232 245 252 228 229 237 227 224 209 221 236 248 255 264 272 282 287 295 298 289 295 301 296 279 288 293 293 296 301 304 311 317 320 306 288 277 253 246 248 249 255
253 273 296 259 232 237 248 242 244 255 238 224 219 239 241 248 256 262 275 284 275 269 270 278 289 291 295 299 290 296 297 298 303 304 302 312 313 298 287 259 251 257 245 239
232 226 219 250 236 220 223 237 234 236 255 253 229 238 244 248 252 258 268 276 276 274 275 278 282 288 296 298 279 256 288 296 295 301 302 306 309 319 318 306 301 295 289 283
238 246 237 264 279 235 233 247 247 238 237 251 250 236 236 249 256 261 267 271 269 271 275 280 285 291 296 294 275 246 253 274 281 290 295 298 300 304 313 324 319 312 307 297
251 255 272 267 267 273 258 258 260 262 256 246 248 247 241 253 261 260 261 266 270 275 282 283 286 290 292 283 273 267 260 275 285 268 278 286 291 294 296 302 315 319 320 313
258 250 245 263 278 285 287 280 274 275 275 275 256 247 245 249 255 261 272 283 289 286 285 287 289 293 299 282 272 271 269 266 264 263 272 283 292 298 299 300 302 305 312 318
296 296 251 245 256 271 279 262 250 260 262 265 265 260 255 251 260 275 283 274 262 274 280 279 280 285 292 278 275 275 270 289 301 291 282 289 293 294 294 296 299 300 301 306
213 262 263 264 265 270 265 256 248 253 256 256 259 259 246 234 280 292 294 289 269 267 268 268 276 283 279 264 253 262 269 284 302 306 288 284 285 283 285 290 294 296 296 297
234 240 237 237 246 259 270 272 263 257 254 256 249 212 197 207 235 262 284 308 320 309 293 285 283 282 274 266 248 249 258 266 274 279 287 287 288 293 295 294 296 296 301 305
282 264 271 266 254 246 257 269 269 263 259 223 190 203 221 232 234 252 267 282 296 299 300 299 312 332 310 292 293 248 257 271 281 282 279 291 305 299 293 289 290 295 301 304
337 339 350 344 342 312 284 286 281 280 257 170 158 155 210 262 233 249 268 271 265 263 276 290 300 297 288 288 304 269 252 257 264 277 278 276 283 288 289 289 291 293 293 296
349 4 10 1 350 348 327 299 191 253 306 145 156 177 216 271 261 234 247 289 294 285 284 306 330 298 280 284 310 326 285 280 276 270 278 283 287 286 284 287 290 291 292 294
333 8 1 5 13 354 351 11 108 124 99 94 127 154 171 251 289 295 269 254 275 301 323 319 300 291 311 334 59 32 326 305 294 281 275 276 278 282 285 288 288 290 291 289
249 261 333 344 8 349 6 24 58 101 120 146 194 212 221 243 256 267 296 299 289 305 332 300 302 317 341 36 80 55 333 304 291 278 273 272 276 277 278 282 283 286 288 290
178 152 337 36 75 72 28 360 16 32 58 335 260 241 229 247 304 292 279 308 322 325 352 320 327 343 19 58 53 359 302 288 280 277 276 278 278 277 278 280 284 285 284 285
174 162 137 110 117 231 266 19 37 30 38 32 12 351 318 252 260 305 324 323 322 339 352 335 338 353 22 17 339 303 292 286 282 280 270 278 279 281 281 281 281 283 283 281
181 201 224 233 236 234 223 190 309 328 346 360 353 343 341 345 332 319 330 333 324 336 347 342 343 349 351 336 317 304 295 301 315 310 283 277 279 280 282 285 286 282 281 281
122 136 130 335 298 233 200 196 218 273 278 269 292 316 332 339 342 341 338 335 335 345 342 341 342 336 325 318 311 302 295 290 285 285 285 282 280 279 280 281 282 282 281 279